星链-1376 (STARLINK-1376 )

导读

STARLINK-1376是美国太空探索技术公司(SpaceX)星链(Starlink)互联网卫星星座的一员,于2020年4月22日由美国发射升空,旨在为全球提供高速低延迟卫星互联网服务。星链通过大规模低轨卫星组网,逐步实现覆盖偏远地区、弥补地面网络覆盖不足的目标,该卫星服役至今推进了全球卫星互联网络的建设。

Basic Information
目录编号:
45570
目录名称:
STARLINK-1376
国际标识:
2020-025AR
轨道中心:
EARTH
卫星名称:
星链-1376
卫星全名:
星链-1376 (STARLINK-1376 )
卫星状态:
在轨 (已飞行2248 天)
发射日期:
2020-04-22 UTC
国别 :
美国 (US)
星等 :
--
Orbit Information
数据来源 国际轨道数据 AOE轨道数据
星历时间 2026-06-18T05:10:25+0800
1天前
查看轨道信息
2026-06-13T08:00:00+0800
5天前
查看轨道信息
半长轴 6826.499km 6827.957km
偏心率 0.0002236 0.0003019
轨道倾角 53.157° 53.156°
近地点辐角 150.552° 129.329°
升交点赤经 329.249° 352.237°
平近点角 209.561° 165.789°
近地点 446.835km 447.758km
远地点 449.889km 451.882km
周期 93.553分钟 93.583分钟
每日圈数 15.392378 15.387449
Detailed Information
固有亮度:
5
最大亮度:
2.5
卫星平台:
Starlink V1.0
覆盖范围:
全球
运营商:
太空探索技术公司
运营商所在国:
美国
制造商(研发单位):
太空探索技术公司
制造商所在国:
美国
使用方式:
暂无
Satellite Introduction
星链(Starlink)计划是由太空探索技术公司(SpaceX)提出的一个巨型低轨卫星互联网星座项目,计划在2019年至2024年间在太空搭建由约1.2万颗卫星组成的“星链”网络,其中1584颗将部署在地球上空550千米处的近地轨道,并从2020年开始工作。该卫星仍在工作。
2D Orbit Map
3D Orbit Map
Orbit Altitude Analysis Chart
Orbit Inclination Analysis Chart
Orbit Comprehensive Analysis Chart
View Comprehensive Chart